EN

Hourly Weather Althengstett

Today, 16 January, Saturday

Time Temperature Precipitation Wind Pressure Humidity
00:00 -5°C° 0.1 mm 0 mps 722 mmHg 96%
01:00 -3°C° 0 mm 1 mps 722 mmHg 97%
02:00 -3°C° 0.1 mm 1 mps 722 mmHg 96%
03:00 -3°C° 0.1 mm 1 mps 722 mmHg 96%
04:00 -4°C° 0.1 mm 1 mps 722 mmHg 96%
05:00 -4°C° 0 mm 1 mps 722 mmHg 95%
06:00 -6°C° 0 mm 1 mps 722 mmHg 95%
07:00 -6°C° 0 mm 1 mps 722 mmHg 95%
08:00 -6°C° 0 mm 1 mps 722 mmHg 93%
09:00 -4°C° 0 mm 1 mps 721 mmHg 91%
10:00 -4°C° 0 mm 1 mps 721 mmHg 90%
11:00 -3°C° 0 mm 1 mps 721 mmHg 87%
12:00 -2°C° 0 mm 1 mps 721 mmHg 84%
13:00 -1°C° 0 mm 1 mps 720 mmHg 81%
14:00 -2°C° 0 mm 1 mps 720 mmHg 82%
15:00 -2°C° 0 mm 1 mps 719 mmHg 84%
16:00 -2°C° 0 mm 1 mps 719 mmHg 85%
17:00 -3°C° 0 mm 1 mps 719 mmHg 87%
18:00 -3°C° 0 mm 1 mps 718 mmHg 88%
19:00 -4°C° 0 mm 1 mps 718 mmHg 89%
20:00 -4°C° 0 mm 1 mps 717 mmHg 88%
21:00 -3°C° 0 mm 1 mps 717 mmHg 87%
22:00 -3°C° 0 mm 1 mps 717 mmHg 86%
23:00 -3°C° 0.2 mm 1 mps 716 mmHg 89%

Tomorrow, 17 January, Sunday

Time Temperature Precipitation Wind Pressure Humidity
00:00 -5°C° 0.2 mm 2 mps 716 mmHg 92%
01:00 -5°C° 0.2 mm 2 mps 715 mmHg 95%
02:00 -5°C° 0.4 mm 2 mps 715 mmHg 95%
03:00 -4°C° 0.4 mm 2 mps 714 mmHg 95%
04:00 -4°C° 0.4 mm 2 mps 714 mmHg 96%
05:00 -4°C° 0.4 mm 2 mps 714 mmHg 96%
06:00 -3°C° 0.4 mm 2 mps 714 mmHg 96%
07:00 -3°C° 0.4 mm 2 mps 714 mmHg 96%
08:00 -2°C° 0.4 mm 2 mps 714 mmHg 97%
09:00 -2°C° 0.4 mm 3 mps 714 mmHg 97%
10:00 -1°C° 0.4 mm 3 mps 714 mmHg 98%
11:00 -1°C° 0.4 mm 3 mps 714 mmHg 98%
12:00 -1°C° 0.4 mm 3 mps 715 mmHg 98%
13:00 -1°C° 0.4 mm 3 mps 715 mmHg 98%
14:00 -1°C° 0.8 mm 3 mps 715 mmHg 98%
15:00 -1°C° 0.8 mm 3 mps 715 mmHg 98%
16:00 -1°C° 0.8 mm 3 mps 716 mmHg 98%
17:00 -1°C° 0.5 mm 3 mps 716 mmHg 98%
18:00 -1°C° 0.5 mm 3 mps 717 mmHg 98%
19:00 -1°C° 0.5 mm 3 mps 718 mmHg 98%
20:00 -1°C° 0.3 mm 3 mps 718 mmHg 98%
21:00 -1°C° 0.3 mm 3 mps 719 mmHg 98%
22:00 -2°C° 0.3 mm 3 mps 719 mmHg 97%
23:00 -2°C° 0.3 mm 3 mps 719 mmHg 97%

Day after tomorrow, 18 January, Monday

Time Temperature Precipitation Wind Pressure Humidity
00:00 -2°C° 0.3 mm 2 mps 720 mmHg 97%
01:00 -2°C° 0.3 mm 2 mps 720 mmHg 97%
02:00 -2°C° 0.3 mm 3 mps 720 mmHg 97%
03:00 -2°C° 0.3 mm 3 mps 720 mmHg 97%
04:00 -2°C° 0.3 mm 3 mps 720 mmHg 97%
05:00 -4°C° 0.1 mm 3 mps 720 mmHg 96%
06:00 -4°C° 0.1 mm 3 mps 721 mmHg 96%
07:00 -4°C° 0.1 mm 3 mps 721 mmHg 95%
08:00 -4°C° 0 mm 3 mps 721 mmHg 95%
09:00 -4°C° 0 mm 3 mps 721 mmHg 94%
10:00 -3°C° 0 mm 2 mps 722 mmHg 94%
11:00 -2°C° 0 mm 3 mps 721 mmHg 94%
12:00 -1°C° 0 mm 3 mps 721 mmHg 94%
13:00 -1°C° 0 mm 3 mps 721 mmHg 94%
14:00 -1°C° 0 mm 3 mps 721 mmHg 94%
15:00 -1°C° 0 mm 2 mps 721 mmHg 94%
16:00 -2°C° 0 mm 2 mps 721 mmHg 94%
17:00 -2°C° 0 mm 2 mps 721 mmHg 93%
18:00 -3°C° 0 mm 2 mps 721 mmHg 93%
19:00 -4°C° 0 mm 2 mps 721 mmHg 92%
20:00 -4°C° 0 mm 2 mps 721 mmHg 92%
21:00 -5°C° 0 mm 2 mps 720 mmHg 91%
22:00 -5°C° 0 mm 2 mps 720 mmHg 90%
23:00 -5°C° 0 mm 2 mps 720 mmHg 90%

19 January, Tuesday

Time Temperature Precipitation Wind Pressure Humidity
00:00 -5°C° 0 mm 2 mps 720 mmHg 89%
01:00 -5°C° 0 mm 2 mps 719 mmHg 89%
02:00 -5°C° 0 mm 2 mps 719 mmHg 88%
03:00 -5°C° 0 mm 2 mps 718 mmHg 87%
04:00 -5°C° 0 mm 2 mps 717 mmHg 87%
05:00 -5°C° 0 mm 2 mps 717 mmHg 86%
06:00 -5°C° 0 mm 2 mps 717 mmHg 84%
07:00 -4°C° 0 mm 2 mps 716 mmHg 83%
08:00 -4°C° 0 mm 2 mps 716 mmHg 82%
09:00 -4°C° 0 mm 3 mps 716 mmHg 80%
10:00 -2°C° 0 mm 3 mps 716 mmHg 79%
11:00 -1°C° 0 mm 3 mps 715 mmHg 79%
12:00 0°C° 0 mm 3 mps 715 mmHg 80%
13:00 +1°C° 0 mm 3 mps 714 mmHg 81%
14:00 +1°C° 0 mm 3 mps 714 mmHg 79%
15:00 +1°C° 0 mm 3 mps 714 mmHg 78%
16:00 0°C° 0 mm 3 mps 713 mmHg 76%
17:00 0°C° 0 mm 3 mps 713 mmHg 75%
18:00 -1°C° 0 mm 3 mps 713 mmHg 74%
19:00 -2°C° 0 mm 3 mps 713 mmHg 74%
20:00 -2°C° 0 mm 3 mps 712 mmHg 73%
21:00 -2°C° 0 mm 3 mps 712 mmHg 73%
22:00 -2°C° 0 mm 3 mps 712 mmHg 73%
23:00 -1°C° 0 mm 3 mps 711 mmHg 73%

20 January, Wednesday

Time Temperature Precipitation Wind Pressure Humidity
00:00 -1°C° 0 mm 3 mps 711 mmHg 74%
01:00 0°C° 0 mm 3 mps 711 mmHg 75%
02:00 0°C° 0 mm 3 mps 711 mmHg 76%
03:00 -1°C° 0 mm 4 mps 710 mmHg 77%
04:00 -1°C° 0 mm 4 mps 710 mmHg 78%
05:00 -1°C° 0 mm 4 mps 710 mmHg 79%
06:00 -1°C° 0 mm 4 mps 709 mmHg 81%
07:00 -1°C° 0 mm 4 mps 709 mmHg 82%
08:00 0°C° 0 mm 4 mps 708 mmHg 82%
09:00 +1°C° 0 mm 3 mps 708 mmHg 83%
10:00 +2°C° 0 mm 3 mps 708 mmHg 83%
11:00 +2°C° 0 mm 3 mps 707 mmHg 83%
12:00 +3°C° 0 mm 3 mps 707 mmHg 82%
13:00 +3°C° 0 mm 3 mps 706 mmHg 82%
14:00 +3°C° 0 mm 3 mps 706 mmHg 80%
15:00 +3°C° 0 mm 3 mps 705 mmHg 79%
16:00 +2°C° 0 mm 3 mps 705 mmHg 78%
17:00 +1°C° 0 mm 3 mps 704 mmHg 77%
18:00 +1°C° 0 mm 3 mps 704 mmHg 76%
19:00 +1°C° 0 mm 2 mps 704 mmHg 75%
20:00 +1°C° 0 mm 2 mps 704 mmHg 76%
21:00 +1°C° 0 mm 2 mps 704 mmHg 76%
22:00 -1°C° 0 mm 2 mps 704 mmHg 76%
23:00 +1°C° 0 mm 2 mps 703 mmHg 76%

21 January, Thursday

Time Temperature Precipitation Wind Pressure Humidity
00:00 +1°C° 0 mm 2 mps 703 mmHg 75%
01:00 +2°C° 0 mm 2 mps 703 mmHg 75%
02:00 +1°C° 0 mm 3 mps 702 mmHg 75%
03:00 +1°C° 0 mm 3 mps 702 mmHg 75%
04:00 +1°C° 0 mm 4 mps 702 mmHg 74%
05:00 0°C° 0 mm 4 mps 702 mmHg 73%
06:00 0°C° 0 mm 4 mps 702 mmHg 73%
07:00 0°C° 0 mm 4 mps 702 mmHg 72%
08:00 0°C° 0.9 mm 4 mps 702 mmHg 80%
09:00 0°C° 0.9 mm 4 mps 703 mmHg 88%
10:00 0°C° 0.9 mm 4 mps 704 mmHg 95%
11:00 0°C° 0.5 mm 4 mps 705 mmHg 93%
12:00 0°C° 0.5 mm 4 mps 705 mmHg 90%
13:00 +1°C° 0.5 mm 4 mps 706 mmHg 88%
14:00 0°C° 0 mm 4 mps 706 mmHg 88%
15:00 +1°C° 0 mm 3 mps 706 mmHg 88%
16:00 +1°C° 0 mm 3 mps 707 mmHg 88%
17:00 0°C° 0 mm 3 mps 707 mmHg 88%
18:00 0°C° 0 mm 3 mps 707 mmHg 88%
19:00 -1°C° 0 mm 2 mps 707 mmHg 88%
20:00 -1°C° 0 mm 2 mps 707 mmHg 88%
21:00 -1°C° 0 mm 2 mps 707 mmHg 88%
22:00 -2°C° 0 mm 2 mps 707 mmHg 87%
23:00 -2°C° 0 mm 2 mps 706 mmHg 86%
Show more